SPACEBEE-3

Last updated on Dec. 8, 2021, 12:03 a.m. UTC

1 43140U 18004AF  21341.49523707  .00011989  00000+0  35378-3 0  9999
2 43140  97.4094  61.7023 0005108 306.1465  53.9305 15.35126628217481
UTC
Height (km)
Latitude
Longitude
Inclination
Orbital Period
UTC large
Height (km)
Speed (km/s)
/
Latitude / Longitude
Inclination (degrees)
Orbital Period (minutes)
Azimuth
Elevation
Range (km)
Doppler Factor
iOS Compass Heading
iOS Angle